Wind_Speed
29 24 23 24 25 25 24 22 20 19 17 16 16 15 16 16 15 13 12 12 11 10 11 12 13 13 12 12 11 11 11 11 12 12 12 13 14 14 14 15 15 15 15 15
33 27 25 23 23 24 25 23 22 20 19 19 19 20 18 17 16 16 15 14 13 12 12 13 13 13 12 12 12 12 12 13 13 13 14 15 15 15 15 16 16 16 15 15
36 31 28 27 25 24 25 26 24 23 22 21 21 22 22 21 20 19 18 17 15 15 14 14 14 14 14 13 13 13 13 14 14 14 15 15 16 16 16 16 16 16 16 16
35 33 34 32 27 25 24 25 25 24 24 23 23 24 25 24 23 21 20 19 18 17 15 15 15 15 15 14 14 15 15 15 15 15 16 15 16 16 17 17 17 17 18 18
36 33 34 34 30 27 27 27 27 27 26 25 24 26 26 25 24 23 22 20 19 18 17 17 16 16 16 15 16 16 16 16 16 16 17 17 17 17 17 18 18 19 19 19
38 34 33 34 31 30 29 29 28 28 28 27 27 26 27 25 23 23 22 21 20 19 19 19 18 18 17 17 17 17 17 18 18 18 18 18 18 18 19 19 20 20 21 21
38 35 33 30 29 29 31 30 30 30 30 28 28 27 27 26 23 23 22 22 21 21 20 19 19 19 19 19 18 19 19 20 20 20 20 20 20 21 21 21 22 22 22 22
38 35 33 31 29 30 31 32 31 31 31 30 30 30 29 26 24 23 22 22 22 22 21 20 20 20 20 20 20 21 22 22 22 23 23 23 23 24 24 25 25 25 25 25
38 38 36 34 34 34 33 33 33 31 31 30 30 29 29 27 25 24 23 22 22 22 22 22 21 21 21 22 22 23 23 24 24 25 25 25 25 26 27 27 27 26 26 26
39 39 40 39 38 37 36 33 32 32 30 30 30 29 29 28 27 26 25 24 24 24 24 24 23 23 24 24 24 24 25 25 25 26 26 27 28 28 29 29 28 28 27 27
42 41 42 42 40 38 36 35 33 33 32 31 31 31 30 29 28 28 27 26 26 26 26 26 26 26 26 27 27 26 26 27 27 28 28 29 29 29 29 29 29 29 28 29
42 43 43 42 41 38 37 36 35 34 33 33 32 31 30 30 30 29 29 28 28 28 29 28 27 27 27 28 29 29 29 29 29 30 30 31 31 31 31 31 30 30 30 30
42 42 42 41 41 39 37 36 35 34 34 32 32 32 32 32 31 31 30 30 30 30 30 29 29 29 29 29 30 30 31 31 31 32 32 32 32 32 32 31 31 31 31 31
41 41 41 41 40 39 38 37 36 36 35 34 33 33 33 32 32 32 32 31 31 31 31 31 31 30 31 31 32 32 32 32 32 32 32 32 32 32 33 33 33 32 31 32
38 38 39 40 40 39 37 37 37 37 36 35 34 34 34 33 33 33 33 33 32 32 32 32 32 32 33 33 34 34 34 33 33 33 33 33 33 33 33 33 33 32 32 32
38 37 37 38 38 39 39 38 38 38 37 36 36 36 36 35 35 34 34 34 34 34 34 34 34 34 34 34 35 35 36 35 34 34 34 34 34 34 35 35 34 33 32 32
37 38 37 37 38 39 40 40 39 39 38 37 37 37 37 37 36 36 36 36 35 35 35 36 35 35 36 36 36 36 36 35 35 35 35 35 36 37 36 36 35 34 33 33
36 37 37 36 37 38 39 40 40 40 38 38 38 38 37 37 37 37 37 37 37 37 37 36 36 36 36 36 37 36 36 36 36 36 36 37 37 38 37 36 35 35 35 34
35 35 36 36 37 38 39 39 39 39 39 39 38 38 38 38 38 38 38 38 38 38 37 37 36 36 36 36 37 37 37 37 37 37 38 38 38 39 38 37 36 37 36 35
34 35 35 35 36 36 37 38 39 39 39 39 39 38 38 38 38 39 39 38 38 38 38 38 37 37 36 36 36 37 37 37 37 38 37 37 38 38 37 37 37 35 35 34
33 34 35 35 35 36 37 37 37 38 38 38 38 38 38 38 38 38 38 38 38 39 38 38 37 37 37 37 37 37 37 37 37 37 37 38 38 37 37 36 34 34 35 34
32 33 34 34 34 35 36 36 37 37 38 38 38 38 39 39 38 38 38 38 37 38 38 39 38 37 36 37 37 37 37 37 37 37 37 36 36 35 34 34 34 34 34 34
31 32 33 34 35 34 35 36 37 37 37 37 37 38 38 38 38 37 37 37 37 37 38 37 36 36 36 36 36 36 36 36 36 36 35 35 35 34 34 33 33 34 34 34
29 30 30 32 33 34 35 35 36 36 37 37 37 37 36 37 37 37 36 36 36 36 36 35 35 35 35 34 34 35 35 35 35 34 34 34 33 32 32 32 32 32 32 33
26 27 28 28 30 31 32 33 33 34 34 33 33 33 33 34 35 35 35 35 35 35 34 34 33 33 33 34 34 34 33 33 33 33 33 33 32 31 31 31 31 31 32 33
22 24 25 25 26 28 29 30 30 31 30 30 29 29 29 29 30 31 32 32 32 33 33 32 32 32 33 33 33 34 33 33 32 32 32 31 31 31 31 32 31 32 32 32
21 22 23 24 24 25 26 27 27 27 27 28 27 27 27 27 27 27 28 29 30 30 31 31 31 31 32 32 32 32 32 32 32 32 32 32 31 31 31 31 31 31 31 32
Wind_Direction
210 216 221 228 222 220 220 217 225 234 237 253 259 252 253 260 267 270 271 276 282 291 301 307 311 317 317 320 325 326 328 329 328 328 329 330 328 327 326 328 329 330 330 329
211 209 214 224 223 219 220 221 224 229 233 241 248 251 252 258 265 270 271 272 275 282 288 297 303 308 313 316 320 321 322 324 325 326 327 326 324 323 324 325 325 327 328 329
215 210 211 219 219 221 221 221 223 229 235 240 246 250 254 260 263 267 271 271 272 276 280 286 293 300 302 305 310 315 318 319 321 323 323 322 321 321 322 323 323 323 325 323
217 213 217 218 219 221 224 225 224 224 231 241 247 253 254 256 261 266 270 273 274 274 274 277 282 289 295 297 302 308 313 315 316 318 320 321 321 320 320 321 322 321 320 321
217 219 222 219 218 219 224 225 224 225 229 236 243 250 254 256 260 265 269 271 271 271 271 273 278 282 288 292 297 302 306 309 311 314 316 316 316 317 317 317 318 319 319 317
218 219 225 223 220 221 224 228 226 226 227 231 239 246 253 255 258 263 267 269 269 270 271 272 274 278 282 285 290 296 301 304 307 310 312 312 312 313 314 315 316 316 316 315
218 220 224 224 224 224 225 226 227 230 231 233 237 244 251 254 259 262 265 267 268 271 273 274 274 276 279 283 288 292 296 299 302 305 306 308 308 308 309 311 312 313 314 314
218 218 223 221 222 223 226 227 229 231 234 237 240 244 250 254 257 260 262 264 266 268 271 274 276 277 279 282 287 290 293 295 297 299 301 304 304 304 305 307 308 310 310 312
218 218 221 223 223 224 227 229 232 235 239 242 244 247 249 251 254 256 258 261 262 265 268 271 274 276 278 281 284 287 290 292 294 295 297 298 301 303 303 304 305 306 307 307
218 220 220 223 224 226 229 232 234 236 240 243 243 245 248 249 250 253 257 259 261 263 266 269 272 275 278 281 283 286 288 290 291 293 294 297 299 301 302 303 304 304 304 304
220 220 222 225 226 227 230 234 237 238 240 242 243 244 244 247 250 253 255 258 261 263 266 269 272 275 278 282 284 285 286 288 289 291 293 295 298 300 301 302 301 301 301 302
221 223 226 228 228 230 232 233 236 239 240 241 243 244 246 248 250 253 255 257 260 262 265 267 270 275 277 281 283 284 285 286 287 288 290 292 295 297 299 300 300 300 301 302
223 225 227 228 228 229 230 233 236 238 239 241 243 244 245 248 251 253 255 257 260 263 266 268 271 274 277 279 281 283 284 285 286 287 288 290 292 294 296 297 297 298 298 300
225 226 228 229 230 230 233 235 236 237 239 242 243 244 246 248 251 253 255 257 261 264 267 269 270 271 274 276 278 280 282 284 285 286 287 288 291 293 295 294 295 296 296 297
225 226 227 230 231 232 234 235 236 238 240 242 244 245 247 250 252 255 256 257 261 264 267 269 270 271 272 274 277 280 282 282 284 286 286 287 290 291 293 294 295 295 295 295
228 230 230 231 232 233 234 235 236 238 241 243 245 246 248 251 253 255 256 259 262 264 267 269 270 271 272 273 275 277 281 281 282 284 285 286 288 291 293 292 292 292 292 293
229 231 233 232 232 234 235 235 238 240 242 243 245 247 249 251 253 255 257 260 262 264 267 269 270 271 271 272 274 276 279 279 281 282 284 287 289 291 291 293 292 290 289 291
232 232 234 235 235 236 237 238 240 242 244 245 247 249 250 252 254 255 257 259 262 265 267 268 269 270 270 271 273 275 276 278 280 281 284 286 289 290 290 290 291 290 289 290
232 235 236 237 238 239 239 239 241 243 245 247 249 251 251 252 253 255 258 260 262 265 266 267 268 268 269 271 271 273 275 277 278 281 283 285 287 288 288 289 290 290 288 288
235 236 238 239 240 241 240 241 242 244 246 247 249 251 252 254 255 257 259 261 263 264 265 266 267 268 269 270 271 274 275 276 278 281 283 285 286 286 286 286 289 289 287 287
236 237 239 240 240 240 240 241 242 244 245 247 249 252 254 256 258 260 262 262 263 264 265 265 266 267 268 269 271 272 273 275 278 281 283 285 286 285 285 285 286 287 287 288
238 239 239 239 239 239 240 241 243 245 246 248 250 252 254 256 258 261 263 264 263 263 264 265 265 266 268 269 270 271 273 275 277 280 282 284 285 283 282 282 283 284 286 288
240 240 241 241 242 244 243 243 244 246 248 250 252 254 256 257 259 262 263 263 264 264 266 267 265 266 267 268 270 272 274 275 278 281 283 284 285 284 283 282 284 284 286 290
242 241 242 242 244 244 244 245 246 248 250 252 254 255 257 258 259 262 264 265 265 265 266 266 266 267 269 269 271 273 275 276 278 280 282 282 282 283 284 284 285 288 291 292
241 240 242 244 245 244 245 246 248 250 252 253 254 255 258 259 260 261 263 266 267 266 266 265 267 268 270 271 272 274 276 278 280 280 280 281 282 284 286 287 289 290 291 291
238 238 241 245 246 245 245 246 248 249 249 252 253 254 257 259 261 262 262 264 266 266 265 265 266 268 271 272 273 275 276 279 280 280 280 280 281 282 285 286 287 290 291 291
241 242 244 245 247 247 246 246 247 249 251 251 251 253 256 259 261 264 265 266 267 266 264 264 266 269 271 272 272 273 275 277 278 279 280 281 282 283 284 284 287 289 290 292
Height
5875 5881 5885 5887 5891 5895 5899 5903 5907 5908 5909 5909 5909 5911 5912 5912 5912 5913 5913 5914 5914 5914 5913 5913 5912 5911 5910 5909 5908 5907 5906 5904 5903 5902 5900 5899 5897 5896 5894 5892 5890 5888 5886 5884
5867 5874 5879 5882 5886 5890 5894 5898 5901 5904 5906 5906 5907 5907 5907 5908 5909 5910 5910 5911 5911 5911 5911 5910 5910 5909 5908 5907 5906 5906 5905 5903 5902 5900 5899 5897 5895 5893 5892 5890 5888 5886 5884 5883
5861 5868 5873 5876 5881 5885 5889 5892 5896 5900 5901 5901 5902 5902 5903 5904 5905 5906 5907 5907 5907 5908 5908 5908 5907 5906 5906 5905 5905 5904 5903 5901 5900 5898 5897 5895 5893 5891 5890 5888 5886 5884 5882 5880
5854 5861 5865 5872 5876 5880 5883 5887 5890 5893 5896 5896 5897 5897 5898 5899 5901 5902 5902 5903 5904 5904 5904 5904 5904 5904 5903 5903 5902 5901 5900 5899 5897 5896 5894 5892 5891 5889 5887 5885 5883 5882 5879 5877
5847 5853 5858 5865 5869 5874 5877 5879 5883 5887 5890 5891 5892 5891 5892 5894 5896 5897 5898 5899 5899 5900 5900 5900 5900 5900 5900 5899 5899 5898 5897 5896 5895 5893 5892 5890 5888 5886 5884 5883 5881 5879 5876 5874
5840 5846 5851 5858 5863 5866 5870 5872 5877 5880 5882 5885 5886 5887 5886 5888 5890 5892 5893 5894 5895 5895 5896 5896 5896 5896 5896 5896 5895 5894 5894 5892 5891 5890 5888 5887 5885 5883 5881 5879 5877 5875 5873 5871
5832 5839 5844 5851 5854 5858 5862 5866 5869 5872 5874 5878 5880 5880 5881 5882 5885 5886 5888 5889 5890 5890 5891 5891 5892 5892 5891 5891 5891 5890 5889 5888 5887 5886 5884 5883 5881 5879 5877 5875 5873 5871 5869 5867
5826 5832 5839 5843 5846 5850 5853 5857 5861 5864 5867 5870 5872 5874 5876 5877 5879 5881 5882 5883 5884 5885 5885 5886 5887 5887 5887 5887 5886 5885 5885 5884 5882 5881 5880 5878 5876 5875 5873 5871 5869 5866 5864 5862
5819 5825 5829 5833 5837 5841 5846 5850 5853 5856 5860 5864 5866 5868 5870 5872 5874 5875 5877 5878 5879 5879 5880 5881 5882 5882 5882 5881 5881 5880 5879 5878 5877 5876 5874 5873 5871 5869 5868 5865 5863 5861 5859 5856
5810 5815 5820 5824 5829 5834 5838 5843 5847 5851 5854 5856 5859 5861 5863 5865 5867 5869 5871 5872 5873 5874 5875 5875 5876 5876 5876 5875 5875 5874 5873 5872 5871 5870 5869 5867 5866 5864 5862 5860 5857 5855 5853 5850
5801 5806 5811 5816 5821 5827 5831 5836 5840 5843 5846 5849 5852 5854 5856 5858 5861 5863 5864 5865 5866 5868 5868 5869 5869 5870 5869 5869 5868 5868 5867 5866 5865 5864 5862 5861 5859 5857 5855 5853 5851 5848 5846 5844
5793 5799 5804 5809 5815 5820 5824 5828 5832 5836 5839 5842 5845 5847 5849 5851 5853 5855 5857 5858 5860 5860 5861 5862 5862 5863 5862 5862 5862 5861 5860 5859 5858 5857 5855 5854 5852 5850 5848 5846 5844 5841 5839 5837
5784 5790 5796 5802 5807 5811 5815 5820 5824 5828 5831 5835 5837 5840 5842 5844 5846 5848 5850 5851 5852 5853 5854 5854 5855 5855 5855 5855 5855 5854 5853 5852 5851 5849 5848 5846 5845 5843 5841 5839 5837 5835 5832 5830
5777 5783 5788 5794 5798 5804 5808 5812 5816 5820 5824 5827 5829 5832 5834 5836 5838 5840 5842 5843 5845 5845 5846 5847 5847 5848 5848 5847 5847 5846 5845 5844 5843 5841 5840 5838 5837 5835 5833 5831 5829 5827 5825 5822
5770 5774 5780 5785 5791 5795 5800 5804 5808 5812 5815 5818 5821 5824 5826 5828 5830 5832 5833 5835 5836 5837 5838 5838 5839 5839 5839 5839 5838 5838 5837 5836 5835 5833 5832 5830 5829 5827 5825 5822 5820 5818 5816 5814
5763 5767 5772 5777 5782 5787 5791 5796 5799 5803 5806 5809 5812 5815 5817 5820 5822 5823 5825 5826 5828 5829 5829 5829 5830 5830 5830 5830 5829 5829 5828 5826 5825 5824 5823 5821 5819 5818 5815 5813 5811 5809 5807 5805
5756 5760 5764 5769 5774 5778 5782 5787 5790 5793 5796 5800 5803 5805 5808 5811 5813 5814 5816 5817 5818 5819 5820 5820 5820 5820 5820 5820 5820 5819 5818 5817 5816 5815 5813 5811 5810 5808 5806 5803 5802 5800 5798 5797
5748 5753 5757 5761 5766 5770 5773 5777 5781 5784 5787 5790 5794 5797 5799 5801 5803 5805 5806 5807 5808 5809 5810 5810 5810 5810 5810 5810 5809 5809 5808 5807 5806 5805 5804 5802 5800 5798 5796 5794 5793 5791 5788 5787
5741 5745 5750 5753 5757 5761 5764 5768 5772 5775 5779 5781 5784 5787 5789 5791 5793 5794 5796 5797 5798 5798 5799 5799 5800 5799 5799 5799 5799 5799 5798 5797 5797 5795 5794 5792 5790 5788 5786 5785 5783 5781 5778 5777
5734 5738 5742 5745 5749 5752 5755 5759 5763 5766 5769 5772 5774 5776 5778 5781 5782 5784 5785 5786 5787 5788 5788 5789 5789 5789 5789 5789 5788 5788 5787 5787 5786 5785 5783 5781 5779 5777 5775 5774 5773 5771 5769 5767
5727 5730 5734 5737 5740 5743 5746 5750 5753 5757 5760 5762 5764 5766 5769 5771 5772 5773 5775 5776 5777 5777 5777 5778 5778 5778 5779 5778 5778 5777 5777 5776 5775 5774 5772 5771 5769 5767 5765 5763 5762 5761 5759 5758
5720 5723 5726 5728 5731 5734 5737 5741 5744 5747 5750 5752 5754 5757 5759 5761 5762 5763 5764 5765 5765 5766 5766 5767 5767 5768 5768 5767 5767 5766 5766 5765 5764 5763 5762 5760 5758 5756 5754 5753 5751 5751 5749 5748
5712 5715 5718 5720 5723 5726 5729 5732 5735 5738 5740 5742 5745 5747 5749 5750 5752 5753 5754 5755 5755 5755 5755 5755 5756 5756 5757 5756 5756 5756 5755 5754 5753 5751 5750 5749 5748 5746 5745 5743 5742 5741 5740 5738
5705 5708 5710 5713 5715 5718 5721 5724 5726 5729 5731 5733 5735 5737 5738 5740 5741 5742 5743 5744 5744 5745 5745 5745 5745 5746 5746 5746 5746 5745 5744 5743 5742 5741 5740 5739 5738 5736 5735 5734 5732 5731 5730 5729
5698 5701 5703 5705 5707 5710 5712 5715 5717 5720 5722 5724 5725 5727 5728 5729 5731 5732 5733 5733 5734 5734 5734 5735 5736 5736 5736 5736 5736 5735 5733 5732 5732 5731 5729 5728 5727 5727 5726 5725 5723 5722 5721 5719
5692 5694 5696 5698 5700 5702 5705 5707 5709 5711 5713 5714 5716 5718 5719 5720 5721 5722 5723 5723 5723 5724 5724 5725 5726 5726 5726 5726 5726 5725 5724 5723 5722 5721 5720 5720 5719 5718 5717 5716 5715 5714 5712 5710
5686 5689 5691 5693 5694 5696 5698 5700 5702 5704 5706 5707 5709 5710 5711 5711 5712 5713 5713 5714 5714 5714 5715 5716 5716 5717 5717 5716 5716 5716 5715 5714 5713 5712 5712 5711 5710 5709 5708 5707 5706 5705 5703 5701